Regional Weather Roundup
Issued by NWS

Home | Current Version | Previous Version | Graphics & Text | Print | Product List | Glossary On
Versions: 1 2 3 4 5 6 7 8 9 10 11 12 13 14 15 16 17 18 19 20 21 22 23 24 25 26 27 28 29 30 31 32 33 34 35 36 37 38 39 40 41 42 43 44 45 46 47 48 49 50
000
ASUS43 KLSX 290507
RWRMO

WEATHER SUMMARY FOR MISSOURI
NATIONAL WEATHER SERVICE SPRINGFIELD MO
1200 AM CDT SUN MAY 29 2016

NOTE: "FAIR" INDICATES FEW OR NO CLOUDS BELOW 12,000 FEET WITH NO
       SIGNIFICANT WEATHER AND/OR OBSTRUCTIONS TO VISIBILITY.
       CURRENT SKY AND/OR WEATHER CONDITIONS ARE NOT AVAILABLE FOR
       CHILLICOTHE AND FARMINGTON.

MOZ001>031-035>038-043-044-053-054-290600-
...NORTHERN AND WESTERN MISSOURI...

CITY           SKY/WX    TMP DP  RH WIND       PRES   REMARKS
KANSAS CTY INT CLEAR     63  58  83 SW6       30.01R
KANSAS C DTWN  CLEAR     69  60  73 CALM      30.00R
LEE`S SUMMIT   CLEAR     66  59  78 SW6       30.03R
ST JOSEPH      CLEAR     66  61  84 S5        29.99R
CHILLICOTHE      N/A     64  61  90 S3        30.00R
KIRKSVILLE     CLEAR     65  58  78 SW7       30.00R

$$
MOZ066>068-077>081-088>096-101>105-290600-
...SOUTHWEST MISSOURI...

CITY           SKY/WX    TMP DP  RH WIND       PRES   REMARKS
SPRINGFIELD    CLEAR     64  60  87 SW3       30.05R
JOPLIN         CLEAR     67  63  87 S3        30.04R

$$
MOZ032>034-039>042-045>050-055>058-069>072-290600-
...CENTRAL MISSOURI...

CITY           SKY/WX    TMP DP  RH WIND       PRES   REMARKS
COLUMBIA       CLEAR     70  62  76 SW8       30.02R
JEFFERSON CITY CLEAR     70  63  78 CALM      30.02R
ROLLA          CLOUDY    64  61  90 S6        30.03R
SEDALIA        CLEAR     67  62  84 S5        30.04R
WHITEMAN AFB   CLEAR     64  64 100 SW5       30.02R
WARRENSBURG    CLEAR     64  61  88 CALM      30.02S

$$
MOZ051-052-059>065-290600-
...EAST CENTRAL MISSOURI...

CITY           SKY/WX    TMP DP  RH WIND       PRES   REMARKS
ST LOUIS INTL  PTCLDY    74  61  63 W9        30.00R
SPIRIT OF STL  CLEAR     67  59  75 W8        29.99R
ST CHARLES     CLEAR     72  60  66 W9        29.98S

$$
MOZ072>076-082>087-097>100-106>115-290600-
...SOUTH CENTRAL AND SOUTHEAST MISSOURI...

CITY           SKY/WX    TMP DP  RH WIND       PRES   REMARKS
CAPE GIRARDEAU CLEAR     68  66  93 S5        30.03F
FARMINGTON     CLEAR     67  65  93 S7        30.04F
POPLAR BLUFF   CLEAR     72  68  87 CALM      30.04R
WEST PLAINS    CLEAR     69  64  84 S3        30.06S

$$


USA.gov is the U.S. government's official web portal to all federal, state and local government web resources and services.